Hays, KS

2:32 PM CDT on March 24, 2017 (GMT -0500)
Hays Regional

Weather History for KHYS - February, 2014

Change the Weather History Date:

Wednesday, February 12, 2014

  Actual Average Record
Temperature  
Mean Temperature 26 °F -  
Max Temperature 35 °F 43 °F 57 °F (2003)
Min Temperature 17 °F 21 °F 8 °F (2004)
Degree Days  
Heating Degree Days 39    
Moisture  
Dew Point 23 °F    
Average Humidity 79    
Maximum Humidity 86    
Minimum Humidity 70    
Precipitation  
Precipitation 0.02 in - - ()
Sea Level Pressure  
Sea Level Pressure 30.03 in    
Wind  
Wind Speed 12 mph (West)    
Max Wind Speed 25 mph    
Max Gust Speed 31 mph    
Visibility 10 miles    
Events      
Averages and records for this station are not official NWS values.
T = Trace of Precipitation, MM = Missing Value Source: NWS Daily Summary

Daily Weather History Graph

Daily Weather History Graph

Search for Another Location

Airport or City:

Trip Planner

Search our weather history database for the weather conditions in past years. The results will help you decide how hot, cold, wet, or windy it might be!

Date:

Astronomy

Feb. 12, 2014 Rise Set
Actual Time 7:31 AM CST 6:11 PM CST
Civil Twilight 7:04 AM CST 6:38 PM CST
Nautical Twilight 6:33 AM CST 7:10 PM CST
Astronomical Twilight 6:02 AM CST 7:41 PM CST
Moon 4:26 PM CST (2/12) 5:49 AM CST (2/12)
Length of Visible Light 11h 34m
Length of Day
10h 39m
Waxing Gibbous, 95% of the Moon is Illuminated
Feb 12
Waxing Gibbous
Feb 14
Full
Feb 22
Last Quarter
Mar 1
New
Mar 8
First Quarter

Hourly Weather History & Observations

Time (CST) Temp. Windchill Dew Point Humidity Pressure Visibility Wind Dir Wind Speed Gust Speed Precip Events Conditions
12:15 AM 17.6 °F 6.4 °F 10.4 °F 73% 30.09 in 10.0 mi SW 9.2 mph - N/A   Partly Cloudy
12:35 AM 17.6 °F 6.4 °F 12.2 °F 79% 30.07 in 10.0 mi SSW 9.2 mph - N/A   Scattered Clouds
12:55 AM 17.6 °F 3.7 °F 12.2 °F 79% 30.04 in 10.0 mi South 13.8 mph - N/A   Partly Cloudy
1:15 AM 17.6 °F 7.3 °F 12.2 °F 79% 30.05 in 10.0 mi SSW 8.1 mph - N/A   Clear
1:35 AM 17.6 °F 12.3 °F 14.0 °F 86% 30.06 in 10.0 mi West 3.5 mph - N/A   Scattered Clouds
1:55 AM 19.4 °F 8.6 °F 14.0 °F 80% 30.05 in 10.0 mi SW 9.2 mph - N/A   Mostly Cloudy
2:15 AM 19.4 °F 9.5 °F 14.0 °F 80% 30.04 in 10.0 mi SSW 8.1 mph - N/A   Mostly Cloudy
2:35 AM 19.4 °F 7.9 °F 15.8 °F 86% 30.04 in 10.0 mi SW 10.4 mph - N/A   Partly Cloudy
2:55 AM 19.4 °F 7.2 °F 15.8 °F 86% 30.04 in 10.0 mi SW 11.5 mph 16.1 mph N/A   Mostly Cloudy
3:15 AM 21.2 °F 10.9 °F 15.8 °F 80% 30.03 in 10.0 mi SW 9.2 mph - N/A   Overcast
3:35 AM 21.2 °F 8.9 °F 17.6 °F 86% 30.03 in 10.0 mi WSW 12.7 mph - N/A   Mostly Cloudy
3:55 AM 21.2 °F 9.5 °F 17.6 °F 86% 30.03 in 10.0 mi WSW 11.5 mph - N/A   Partly Cloudy
4:15 AM 24.8 °F 14.0 °F 19.4 °F 80% 30.03 in 10.0 mi WSW 11.5 mph - N/A   Clear
4:35 AM 24.8 °F 14.0 °F 19.4 °F 80% 30.03 in 10.0 mi West 11.5 mph - N/A   Clear
4:55 AM 23.0 °F 11.1 °F 19.4 °F 86% 30.02 in 10.0 mi West 12.7 mph - N/A   Clear
5:15 AM 23.0 °F 13.1 °F 17.6 °F 80% 30.03 in 10.0 mi NW 9.2 mph - N/A   Clear
5:35 AM 26.6 °F 15.2 °F 21.2 °F 80% 30.03 in 10.0 mi NW 13.8 mph - N/A   Clear
5:55 AM 28.4 °F 16.6 °F 23.0 °F 80% 30.04 in 10.0 mi NW 16.1 mph - N/A   Scattered Clouds
6:15 AM 30.2 °F 19.3 °F 24.8 °F 80% 30.05 in 10.0 mi NW 15.0 mph 21.9 mph N/A   Mostly Cloudy
6:35 AM 33.8 °F 22.5 °F 26.6 °F 75% 30.06 in 10.0 mi NNW 19.6 mph - N/A   Partly Cloudy
6:55 AM 33.8 °F 22.8 °F 26.6 °F 75% 30.07 in 10.0 mi NW 18.4 mph - N/A   Clear
7:15 AM 32.0 °F 20.5 °F 24.8 °F 75% 30.08 in 10.0 mi NW 18.4 mph - N/A   Clear
7:35 AM 30.2 °F 18.5 °F 24.8 °F 80% 30.08 in 10.0 mi NW 17.3 mph - N/A   Clear
7:55 AM 32.0 °F 20.5 °F 24.8 °F 75% 30.09 in 10.0 mi NW 18.4 mph 24.2 mph N/A   Clear
8:15 AM 32.0 °F 20.5 °F 24.8 °F 75% 30.10 in 10.0 mi NNW 18.4 mph 24.2 mph N/A   Clear
8:35 AM 30.2 °F 17.4 °F 24.8 °F 80% 30.10 in 10.0 mi NNW 20.7 mph - N/A   Clear
8:55 AM 30.2 °F 17.1 °F 24.8 °F 80% 30.11 in 10.0 mi NNW 21.9 mph - N/A   Clear
9:15 AM 30.2 °F 16.8 °F 24.8 °F 80% 30.11 in 10.0 mi NNW 23.0 mph 31.1 mph N/A   Clear
9:35 AM 30.2 °F 16.2 °F 24.8 °F 80% 30.13 in 7.0 mi North 25.3 mph - N/A   Clear
9:55 AM 30.2 °F 16.5 °F 24.8 °F 80% 30.13 in 10.0 mi North 24.2 mph - N/A   Clear
10:15 AM 30.2 °F 16.8 °F 24.8 °F 80% 30.12 in 10.0 mi North 23.0 mph 27.6 mph N/A   Clear
10:35 AM 30.2 °F 17.8 °F 24.8 °F 80% 30.13 in 10.0 mi North 19.6 mph - N/A   Clear
10:55 AM 30.2 °F 20.8 °F 24.8 °F 80% 30.15 in 10.0 mi NNW 11.5 mph - N/A   Scattered Clouds
11:15 AM 32.0 °F 20.5 °F 26.6 °F 80% 30.15 in 10.0 mi North 18.4 mph - N/A   Overcast
11:35 AM 32.0 °F 22.5 °F 26.6 °F 80% 30.15 in 10.0 mi NNW 12.7 mph - N/A   Overcast
11:55 AM 33.8 °F 23.9 °F 26.6 °F 75% 30.14 in 10.0 mi NNW 15.0 mph - 0.01 in   Overcast
12:15 PM 32.0 °F 21.6 °F 24.8 °F 75% 30.14 in 10.0 mi NNW 15.0 mph - N/A   Overcast
12:35 PM 33.8 °F 24.3 °F 24.8 °F 70% 30.13 in 10.0 mi NW 13.8 mph - N/A   Mostly Cloudy
12:55 PM 33.8 °F 24.3 °F 26.6 °F 75% 30.12 in 10.0 mi NW 13.8 mph - N/A   Clear
1:15 PM 33.8 °F 25.8 °F 26.6 °F 75% 30.11 in 10.0 mi NW 10.4 mph - N/A   Clear
1:35 PM 33.8 °F 25.8 °F 24.8 °F 70% 30.08 in 10.0 mi NW 10.4 mph - 0.01 in   Clear
1:55 PM 33.8 °F 26.4 °F 26.6 °F 75% 30.07 in 10.0 mi NW 9.2 mph - 0.01 in   Clear
2:15 PM 33.8 °F 27.0 °F 26.6 °F 75% 30.05 in 10.0 mi NW 8.1 mph - N/A   Clear
2:35 PM 33.8 °F 27.0 °F 24.8 °F 70% 30.04 in 10.0 mi West 8.1 mph - N/A   Clear
2:55 PM 33.8 °F 27.0 °F 26.6 °F 75% 30.04 in 10.0 mi WNW 8.1 mph - N/A   Clear
3:15 PM 33.8 °F 27.0 °F 26.6 °F 75% 30.04 in 10.0 mi WNW 8.1 mph - N/A   Clear
3:35 PM 35.6 °F 30.7 °F 26.6 °F 70% 30.04 in 10.0 mi WNW 5.8 mph - N/A   Clear
3:55 PM 35.6 °F 27.1 °F 26.6 °F 70% 30.04 in 10.0 mi WNW 12.7 mph - N/A   Clear
4:15 PM 33.8 °F 25.3 °F 26.6 °F 75% 30.03 in 10.0 mi West 11.5 mph - N/A   Clear
4:35 PM 33.8 °F 27.0 °F 26.6 °F 75% 30.02 in 10.0 mi West 8.1 mph - N/A   Clear
4:55 PM 33.8 °F 27.7 °F 26.6 °F 75% 30.01 in 10.0 mi West 6.9 mph - N/A   Clear
5:15 PM 33.8 °F 28.6 °F 26.6 °F 75% 30.00 in 10.0 mi WSW 5.8 mph - N/A   Clear
5:35 PM 33.8 °F 27.7 °F 26.6 °F 75% 30.00 in 10.0 mi SW 6.9 mph - N/A   Clear
5:55 PM 32.0 °F 26.4 °F 26.6 °F 80% 29.99 in 10.0 mi SW 5.8 mph - N/A   Clear
6:15 PM 32.0 °F 25.6 °F 26.6 °F 80% 29.98 in 10.0 mi SSW 6.9 mph - N/A   Clear
6:35 PM 30.2 °F 23.4 °F 26.6 °F 86% 29.99 in 10.0 mi SW 6.9 mph - N/A   Clear
6:55 PM 30.2 °F 24.3 °F 26.6 °F 86% 29.98 in 10.0 mi SSW 5.8 mph - N/A   Clear
7:15 PM 30.2 °F 24.3 °F 24.8 °F 80% 29.98 in 10.0 mi South 5.8 mph - N/A   Clear
7:35 PM 30.2 °F 23.4 °F 24.8 °F 80% 29.96 in 10.0 mi South 6.9 mph - N/A   Clear
7:55 PM 28.4 °F 22.2 °F 24.8 °F 86% 29.95 in 10.0 mi SSE 5.8 mph - N/A   Clear
8:15 PM 28.4 °F 19.7 °F 24.8 °F 86% 29.92 in 10.0 mi SE 9.2 mph - N/A   Clear
8:35 PM 28.4 °F 21.2 °F 24.8 °F 86% 29.93 in 10.0 mi SSE 6.9 mph - N/A   Clear
8:55 PM 28.4 °F 19.7 °F 23.0 °F 80% 29.94 in 10.0 mi SW 9.2 mph - N/A   Clear
9:15 PM 28.4 °F 19.7 °F 24.8 °F 86% 29.95 in 10.0 mi SW 9.2 mph - N/A   Clear
9:35 PM 28.4 °F 19.7 °F 23.0 °F 80% 29.95 in 10.0 mi SW 9.2 mph - N/A   Clear
9:55 PM 28.4 °F 19.1 °F 23.0 °F 80% 29.92 in 10.0 mi SSW 10.4 mph - N/A   Clear
10:15 PM 28.4 °F 19.1 °F 24.8 °F 86% 29.91 in 10.0 mi South 10.4 mph - N/A   Clear
10:35 PM 28.4 °F 19.7 °F 24.8 °F 86% 29.89 in 10.0 mi SSW 9.2 mph - N/A   Clear
10:55 PM 28.4 °F 18.0 °F 23.0 °F 80% 29.89 in 10.0 mi SSW 12.7 mph - N/A   Clear
11:15 PM 28.4 °F 17.5 °F 23.0 °F 80% 29.88 in 10.0 mi SW 13.8 mph - N/A   Clear
11:35 PM 28.4 °F 19.1 °F 23.0 °F 80% 29.88 in 10.0 mi SW 10.4 mph - N/A   Clear
11:55 PM 26.6 °F 18.2 °F 21.2 °F 80% 29.86 in 10.0 mi SSW 8.1 mph - N/A   Clear